This is the latest recevied weather packets stored in our database for station/object DL2RXE-13. If no packets are shown the sender has not sent any weather packets the latest 10 day(s).
| Time | Temp. | Humidity | Pressure | Rain* | Wind** | Luminosity | Snow |
|---|---|---|---|---|---|---|---|
| 1778121052 | 6.67° C | 95% | 1009.8 hPa | 0 mm | - | 0 W/m² | - |
| 1778119842 | 7.22° C | 94% | 1009.8 hPa | 0 mm | - | 0 W/m² | - |
| 1778115629 | 8.89° C | 91% | 1009.1 hPa | 0 mm | - | 0 W/m² | - |
| 1778107847 | 10° C | 91% | 1008.5 hPa | 0 mm | - | 0 W/m² | - |
| 1778104852 | 10° C | 90% | 1008.4 hPa | 0 mm | - | 0 W/m² | - |
| 1778100644 | 10.56° C | 90% | 1008.2 hPa | 0 mm | - | 0 W/m² | - |
| 1778092229 | 11.67° C | 91% | 1007.1 hPa | 0 mm | - | 3 W/m² | - |
| 1778089867 | 12.22° C | 91% | 1006.8 hPa | 0 mm | - | 12 W/m² | - |
| 1778083843 | 12.78° C | 87% | 1006.5 hPa | 0 mm | - | 92 W/m² | - |
| 1778073031 | 12.78° C | 92% | 1006.9 hPa | 0 mm | - | 112 W/m² | - |
| 1778070630 | 12.78° C | 93% | 1006.7 hPa | 0 mm | - | 110 W/m² | - |
| 1778068248 | 12.78° C | 93% | 1006.7 hPa | 0 mm | - | 71 W/m² | - |
| 1778066462 | 12.78° C | 92% | 1006.8 hPa | 0 mm | - | 67 W/m² | - |
| 1778061047 | 12.22° C | 98% | 1005.9 hPa | 0 mm | - | 107 W/m² | - |
| 1778059243 | 11.67° C | 99% | 1005.6 hPa | 0 mm | - | 286 W/m² | - |
| 1778056850 | 11.67° C | 99% | 1005.2 hPa | 0 mm | - | 140 W/m² | - |
| 1778055630 | 11.67° C | 99% | 1005.1 hPa | 0 mm | - | 108 W/m² | - |
| 1778054429 | 12.22° C | 99% | 1005 hPa | 0 mm | - | 109 W/m² | - |
| 1778053231 | 11.67° C | 99% | 1004.9 hPa | 0.25 mm | - | 169 W/m² | - |
| 1778050830 | 11.67° C | 99% | 1004.6 hPa | 0.51 mm | - | 135 W/m² | - |
| 1778047831 | 11.11° C | 99% | 1004.5 hPa | 1.52 mm | - | 64 W/m² | - |
| 1778047229 | 11.11° C | 99% | 1004.3 hPa | 1.52 mm | - | 35 W/m² | - |
| 1778046629 | 11.11° C | 99% | 1004.3 hPa | 1.02 mm | - | 36 W/m² | - |
| 1778045429 | 11.11° C | 99% | 1004.2 hPa | 1.02 mm | - | 25 W/m² | - |
| 1778040062 | 11.11° C | 99% | 1004.5 hPa | 0.25 mm | - | 4 W/m² | - |
* Rain latest hour (hover to see other rain measurements)
** Current wind speed in m/s (hover to see current wind gust speed)